This is the latest recevied weather packets stored in our database for station/object KG7MRB. If no packets are shown the sender has not sent any weather packets the latest 10 day(s).
| Time | Temp. | Humidity | Pressure | Rain* | Wind** | Luminosity | Snow |
|---|---|---|---|---|---|---|---|
| 1777756423 | 26.11° C | 39% | 1033.7 hPa | 0 mm | - | 657 W/m² | - |
| 1777756121 | 25.56° C | 38% | 1034 hPa | 0 mm | - | 659 W/m² | - |
| 1777755818 | 26.11° C | 39% | 1033.9 hPa | 0 mm | - | 663 W/m² | - |
| 1777755515 | 26.11° C | 41% | 1033.9 hPa | 0 mm | - | 666 W/m² | - |
| 1777755211 | 25.56° C | 42% | 1034.1 hPa | 0 mm | - | 669 W/m² | - |
| 1777754908 | 26.11° C | 40% | 1034 hPa | 0 mm | - | 671 W/m² | - |
| 1777754606 | 25.56° C | 43% | 1034 hPa | 0 mm | - | 673 W/m² | - |
| 1777754303 | 25.56° C | 40% | 1034.1 hPa | 0 mm | - | 675 W/m² | - |
| 1777754000 | 25.56° C | 40% | 1034 hPa | 0 mm | - | 676 W/m² | - |
| 1777753695 | 25.56° C | 41% | 1034.1 hPa | 0 mm | - | 679 W/m² | - |
| 1777753393 | 26.11° C | 40% | 1034.1 hPa | 0 mm | - | 678 W/m² | - |
| 1777753091 | 25.56° C | 39% | 1034.2 hPa | 0 mm | - | 681 W/m² | - |
| 1777752786 | 25.56° C | 41% | 1034 hPa | 0 mm | - | 680 W/m² | - |
| 1777752483 | 26.11° C | 38% | 1034 hPa | 0 mm | - | 682 W/m² | - |
| 1777752179 | 26.11° C | 39% | 1034 hPa | 0 mm | - | 682 W/m² | - |
| 1777751877 | 25.56° C | 36% | 1034.2 hPa | 0 mm | - | 680 W/m² | - |
| 1777751574 | 25.56° C | 37% | 1034.3 hPa | 0 mm | - | 678 W/m² | - |
| 1777751270 | 25° C | 41% | 1034.2 hPa | 0 mm | - | 678 W/m² | - |
| 1777750967 | 25.56° C | 38% | 1034.4 hPa | 0 mm | - | 677 W/m² | - |
| 1777750663 | 25° C | 38% | 1034.3 hPa | 0 mm | - | 674 W/m² | - |
| 1777750361 | 25° C | 39% | 1034.4 hPa | 0 mm | - | 669 W/m² | - |
| 1777750061 | 25° C | 40% | 1034.1 hPa | 0 mm | - | 669 W/m² | - |
| 1777749758 | 24.44° C | 43% | 1034.3 hPa | 0 mm | - | 663 W/m² | - |
| 1777749455 | 24.44° C | 40% | 1034.6 hPa | 0 mm | - | 660 W/m² | - |
| 1777749153 | 24.44° C | 40% | 1034.6 hPa | 0 mm | - | 655 W/m² | - |
* Rain latest hour (hover to see other rain measurements)
** Current wind speed in m/s (hover to see current wind gust speed)